User: anonymous   Login
Location: Unspecified
(0.0000°N, 0.0000°E)
Time: 00:46:51
(UTC+00:00)
Language:

TIANLIAN 2-02 - Orbit

View from above orbital plane
View from above orbital plane
View from above satellite
View from above satellite

Ground track
Ground track

The orbit is defined by the following mean orbital elements,

1 50005U          26145.26115240 +.00000000 +00000-0 +00000-0 0 00002
2 50005   0.7444  86.4477 0001931 220.8094 200.5670  1.00271131    02
Epoch (UTC): 25 May 2026 06:16:03
Eccentricity: 0.0001931
inclination: 0.7444°
perigee height: 35779 km
apogee height: 35795 km
right ascension of ascending node: 86.4477°
argument of perigee: 220.8094°
revolutions per day: 1.00271131
mean anomaly at epoch: 200.5670°

The dashed part of the orbit path shows where the satellite is in the earth's shadow,  

DLR